Location: Favalello
(42.2939°N, 9.2706°E)
Time: 00:39:01
(UTC+00:00)

Meteor 1-11 Rocket - Pass Details

Date: 06 December 2019
Orbit: 831 x 916 km, 81.2° (Epoch: 17 January)

Event Time Altitude Azimuth Distance (km) Brightness Sun altitude
Rises 16:29:27 0° 356° (N) 3,556 6.7 -7.2°
Reaches altitude 10° 16:32:06 10° 4° (N) 2,614 6.0 -7.7°
Maximum altitude 16:37:43 41° 73° (ENE) 1,307 4.2 -8.6°
Drops below altitude 10° 16:43:17 10° 143° (SE) 2,593 6.1 -9.6°
Sets 16:45:53 0° 150° (SSE) 3,524 6.8 -10.0°
